Powrót do katalogu

STARLINK-38056

AktywnyŁącznośćSSO
NORAD 69760·PAYLOAD·🇺🇸 United States

Wystrzelony Jul 2, 2026 z Vandenberg Space Force Base

Loading…

Następne Przeloty (najbliższe 24 godziny)

TLE

ŚwieżeSource: CelesTrak SupGP

Epoka: Sep 15, 2026, 04:09 UTC

1 69760C 26150X   26258.17340278 -.00064685  00000+0 -20094-2 0  2582
2 69760  97.2844  97.1846 0001857  89.6870 140.0295 15.33447809    14

Śledź STARLINK-38056 w czasie rzeczywistym z AllMySat

Download on the App Store